WGS F2 (USA 204)

Last updated on Oct. 1, 2020, 5:42 a.m. UTC

1 34713U 09017A   20274.72895242  .00000033  00000-0  00000+0 0  9994
2 34713   0.0040 185.6376 0000388 284.2398 222.6940  1.00272911 42021
UTC
Height (km)
Latitude
Longitude
Inclination
Orbital Period
UTC large
Height (km)
Speed (km/s)
/
Latitude / Longitude
Inclination (degrees)
Orbital Period (minutes)
Azimuth
Elevation
Range (km)
Doppler Factor
iOS Compass Heading
iOS Angle

Next 30 passes for location: Hong Kong

Rise time Rise Azimuth (degrees) Set time Set Azimuth (degrees) Duration Max altitude (degrees)

No matching passes for this satellites